Regional Weather Roundup
Issued by NWS

Home | Current Version | Previous Version | Graphics & Text | Print | Product List | Glossary On
Versions: 1 2 3 4 5 6 7 8 9 10 11 12 13 14 15 16 17 18 19 20 21 22 23 24 25 26 27
000
ASUS45 KBOU 202007
RWRCO

WEATHER ROUNDUP FOR COLORADO
NATIONAL WEATHER SERVICE DENVER/BOULDER CO
200 PM MDT WED SEP 20 2017

NOTE: "FAIR" INDICATES FEW OR NO CLOUDS BELOW 12000 FEET WITH NO
SIGNIFICANT WEATHER AND/OR OBSTRUCTIONS TO VISIBILITY.

COZ001>005-013-030-031-202100-
...NORTHWEST COLORADO...

CITY           SKY/WX    TMP DP  RH WIND       PRES   REMARKS
CRAIG          FAIR      68  36  30 VRB6      29.92F
HAYDEN         FAIR      64  38  38 S5        29.95F
MEEKER         PTSUNNY   71  31  22 SW16G31   29.93F
RABBIT EARS PA FAIR      50  36  57 W8        30.16S
STEAMBOAT SPGS FAIR      62  39  42 S5        29.96F
WALDEN         FAIR      63  30  29 SW18G28   30.02F
$$

COZ006>008-011-202100-
...WEST CENTRAL VALLEYS...

CITY           SKY/WX    TMP DP  RH WIND       PRES   REMARKS
GRAND JUNCTION FAIR      77  37  23 W13G21    29.87F
MONTROSE       FAIR      78  30  17 SW18G33   29.95F
EAGLE          FAIR      75  31  19 SW22G29   29.94F
RIFLE          FAIR      77  33  20 W16       29.89F
DELTA          FAIR      83  29  14 SW16      29.91F
NUCLA          FAIR      77  28  16 SW22G33   30.01F
$$

COZ017>023-064>068-202100-
...SOUTHWEST COLORADO...

CITY           SKY/WX    TMP DP  RH WIND       PRES   REMARKS
DURANGO        FAIR      73  30  20 SW6       30.09F
CORTEZ         FAIR      76  30  18 SW15      30.02F
PAGOSA SPRINGS FAIR      67  24  19 CALM      30.16F
TELLURIDE      FAIR      67  20  16 SW5G21    30.19S
WOLF CREEK PAS FAIR      46  27  46 S23G37    30.39F
$$

COZ009-010-012-014-032>034-037-058>063-202100-
...CENTRAL COLORADO...

CITY           SKY/WX    TMP DP  RH WIND       PRES   REMARKS
ASPEN          FAIR      71  22  15 SW8G24    30.01F
BUENA VISTA    FAIR      72  17  12 CALM      30.02F
COPPER MTN     FAIR      59  21  23 W18G26    30.27F
BERTHOUD PASS  FAIR      45  36  70 W24G51    30.27F
COTTONWOOD PAS FAIR      68  18  14 SW22G33   30.15F
GUNNISON       FAIR      71  28  20 SW14G23   30.03F
KREMMLING      FAIR      79  25  13 W22G29    29.98F
LEADVILLE      FAIR      61  16  17 SW12G20   30.12F
MONARCH PASS   FAIR      52  23  32 W26G41    30.41S
SALIDA         FAIR      76  22  13 S16G25    30.07F
SUNLIGHT       FAIR      55  27  33 S13G26    30.22F
WILKERSON PASS FAIR      59  19  21 SW12G25   30.24F
$$

COZ069>075-202100-
...SAN LUIS VALLEY/SANGRE DE CRISTO MOUNTAINS...

CITY           SKY/WX    TMP DP  RH WIND       PRES   REMARKS
ALAMOSA        FAIR      74  29  19 S26G37    30.06F
DEL NORTE      FAIR      72  26  18 W21G29    30.08F
LA VETA PASS   FAIR      64  27  24 S26G39    30.34F
SAGUACHE       FAIR      72  30  21 S10G21    30.06F
$$

COZ035-036-038>040-202100-
...NORTHERN COLORADO FRONT RANGE...

CITY           SKY/WX    TMP DP  RH WIND       PRES   REMARKS
DENVER INTL AP FAIR      77  28  16 SE16G25   29.86F
DMNS CITY PARK   N/A     71  33  24 N9        29.86F
AURORA         MOSUNNY   76  30  18 S13G21    29.87F
FRONT RANGE AP MOSUNNY   77  28  16 S15G29    29.89F
ERIE MUNI ARPT FAIR      71  31  23 NE6       29.91F
BOULDER MUN AP FAIR      68  32  26 NE6       29.88F
CENTENNIAL     FAIR      74  28  18 S17       29.88F
BROOMFIELD     MOSUNNY   68  32  26 CALM      29.90F
FORT COLLINS   FAIR      76  34  21 E10G18    29.87F
LONGMONT       FAIR      74  35  24 CALM      29.89F
$$

COZ041-046-047-076>085-087-088-202100-
...PIKES PEAK/PALMER DIVIDE AND SOUTHERN FOOTHILLS...

CITY           SKY/WX    TMP DP  RH WIND       PRES   REMARKS
COLO. SPRINGS  FAIR      66  28  24 S24G31    30.00F
A. F. ACADEMY  NOT AVBL
SCHRIEVER AFB  NOT AVBL
CHEYENNE MTN   NOT AVBL
ELLICOTT         N/A    N/A N/A N/A SW18G25   30.00F
FALCON         FAIR      63  25  23 S20G32    30.04F
FORT CARSON    NOT AVBL
LIMON          FAIR      69  25  19 SE26G32   29.96F
MONUMENT HILL  FAIR      63  28  27 S28G36    29.98F
CANON CITY     SUNNY     72  32  23 E7        29.97F
WALSENBURG     FAIR      79  36  21 SE15G22   29.96F
TRINIDAD       FAIR      79  34  19 S14G21    29.96F
$$

COZ042>045-048>051-090-091-202100-
...NORTHEAST COLORADO...

CITY           SKY/WX    TMP DP  RH WIND       PRES   REMARKS
GREELEY ARPT   FAIR      76  32  20 SE20G30   29.86F
AKRON          FAIR      72  26  18 S21G29    29.93F
BURLINGTON     FAIR      75  29  18 S14       29.96F
WRAY           FAIR      77  25  14 SE12      29.93F
YUMA           FAIR      72  32  23 S10       29.93F
STERLING       FAIR      73  32  21 S18G24    29.89F
HOLYOKE        NOT AVBL
FORT MORGAN    FAIR      75  23  14 S20G30    29.90F
$$

COZ086-089-092>099-202100-
...SOUTHEAST COLORADO...

CITY           SKY/WX    TMP DP  RH WIND       PRES   REMARKS
PUEBLO         FAIR      74  28  18 SE14      29.94F
LA JUNTA       FAIR      76  29  17 SE13      29.95F
LAMAR            N/A     76  29  17 SE10G18   29.93F
SPRINGFIELD      N/A     73  35  25 VRB6G16   29.98F
$$




USA.gov is the U.S. government's official web portal to all federal, state and local government web resources and services.